[[{"header":{"parameterUnit":"m.s-1","parameterCategory":1,"la1":30.2991,"la2":30.254,"lo1":-89.0895,"lo2":-89.0444,"dy":0.0017,"dx":0.0017,"nx":28,"ny":28,"refTime":"2025-12-05T03:00:00:Z","depth":0,"parameterNumber":2,"parameterNumberName":"U-component_of_WINDS"},"data":[0,0,0,0,0,0,0,0,0,0,0,0,0,0,0,0,0,0,0,0,0,0,0,0,0,0,0,0,0,0,0,0,0,0,0,0,0,0,0,0,0,0,0,0,0,0,0,0,0,0,0,0,0,0,0,0,0,0,-2.1862,-2.1862,0,-2.1882,-2.1882,-2.1882,-2.1844,-2.1842,-2.1841,-2.184,-2.186,-2.1861,-2.1863,0,0,0,0,0,0,0,0,0,0,0,0,0,-2.179,-2.1791,-2.1862,-2.1862,-2.1863,-2.1882,-2.1882,-2.1882,-2.1844,-2.1842,-2.1841,-2.1839,-2.1859,-2.1861,-2.1863,0,0,0,0,0,0,0,0,0,0,0,0,0,-2.1817,-2.1792,-2.1862,-2.1846,-2.1844,-2.1882,-2.1882,-2.1882,-2.1844,-2.1842,-2.184,-2.1839,-2.1858,-2.1861,-2.1863,-2.1917,0,0,-2.1871,-2.1872,0,0,0,0,0,0,0,0,-2.1815,-2.1819,-2.1848,-2.1847,-2.1846,-2.1858,-2.1864,-2.1894,-2.1845,-2.1844,-2.184,-2.1838,-2.1861,-2.1863,-2.1871,-2.1918,-2.1919,-2.1872,-2.1873,-2.1874,-2.1875,0,0,0,0,0,0,0,-2.1813,-2.1818,-2.187,-2.1848,-2.1847,-2.1837,-2.1839,-2.1869,-2.1863,-2.1844,-2.1841,-2.1844,-2.186,-2.1869,-2.1871,-2.192,-2.1871,-2.1874,-2.1875,-2.1876,-2.2012,-2.2014,0,0,0,0,0,0,-2.1814,-2.1817,-2.1869,-2.187,-2.1825,-2.184,-2.1842,-2.1856,-2.1863,-2.1862,-2.1846,-2.1842,-2.1865,-2.1868,-2.1872,-2.1935,-2.1874,-2.1877,-2.1878,-2.201,-2.2012,-2.2015,0,0,0,0,0,0,-2.1812,-2.1819,-2.1868,-2.1843,-2.1849,-2.1843,-2.186,-2.1858,-2.1866,-2.1864,-2.1862,-2.1856,-2.1864,-2.1868,-2.1906,-2.1935,-2.1878,-2.188,-2.2007,-2.2011,-2.2013,-2.2062,0,0,0,0,0,0,-2.181,-2.1818,-2.1839,-2.1844,-2.185,-2.1903,-2.1861,-2.1859,-2.1871,-2.1867,-2.1873,-2.1872,-2.1863,-2.1903,-2.1909,-2.1938,-2.1882,-2.2005,-2.2009,-2.2012,-2.2058,-2.2067,-2.2074,0,0,0,0,0,-2.1808,-2.1852,-2.184,-2.1847,-2.1876,-2.1905,-2.1909,-2.1897,-2.1873,-2.1894,-2.1892,-2.1872,-2.1931,-2.1907,-2.1914,-2.1944,-2.2003,-2.2008,-2.2012,-2.2055,-2.2065,-2.2074,0,0,0,0,0,0,-2.1851,-2.1852,-2.1839,-2.1887,-2.1896,-2.1898,-2.1924,-2.1908,-2.1924,-2.1919,-2.1904,-2.1905,-2.1947,-2.1949,-2.1922,-2.1996,-2.1963,-2.1969,-2.1993,-2.2003,-2.2011,-2.2009,-2.1884,0,0,0,0,0,-2.1866,-2.189,-2.189,-2.1931,-2.1936,-2.193,-2.1942,-2.1932,-2.1941,-2.1944,-2.1946,-2.1955,-2.1975,-2.1989,-2.2008,-2.2058,-2.2059,-2.2082,-2.209,-2.2097,-2.2102,-2.2128,-2.2139,-2.203,-2.203,-2.203,0,0,-2.1897,-2.1901,-2.1917,-2.194,-2.1946,-2.1971,-2.1933,-2.1961,-2.1979,-2.1949,-2.1985,-2.1986,-2.1995,-2.204,-2.2059,-2.2043,-2.2132,-2.2103,-2.2108,-2.211,-2.2134,-2.2145,-2.2154,-2.2033,-2.2032,-2.2032,0,0,-2.1966,-2.1972,-2.2007,-2.2014,-2.2023,-2.2018,-2.2027,-2.2032,-2.2032,-2.2068,-2.2045,-2.2066,-2.2102,-2.211,-2.2118,-2.219,-2.2172,-2.2197,-2.2238,-2.2264,-2.2273,-2.228,-2.2305,-2.2315,-2.2202,-2.2202,-2.2202,0,-2.2004,-2.204,-2.2027,-2.2056,-2.2067,-2.204,-2.2076,-2.2083,-2.2098,-2.2106,-2.2087,-2.2131,-2.2136,-2.2182,-2.2199,-2.2207,-2.2216,-2.2196,-2.2272,-2.228,-2.2287,-2.2311,-2.232,-2.2205,-2.2205,-2.2204,-2.2204,0,-2.2085,-2.2111,-2.2138,-2.2154,-2.2167,-2.22,-2.2191,-2.2206,-2.2195,-2.2192,-2.2229,-2.2233,-2.2252,-2.2262,-2.2251,-2.2306,-2.2296,-2.2275,-2.2242,-2.23,-2.2322,-2.2331,-2.2209,-2.2208,-2.2207,-2.2207,0,0,-2.2182,-2.219,-2.22,-2.2207,-2.2216,-2.2235,-2.2266,-2.2285,-2.2298,-2.2309,-2.2334,-2.2365,-2.2346,-2.2356,-2.2346,-2.2368,-2.2424,-2.2345,-2.2345,-2.2359,-2.2485,-2.25,-2.2511,-2.2412,-2.2414,-2.2416,-2.2484,0,-2.2251,-2.2304,-2.2293,-2.2345,-2.2368,-2.2343,-2.237,-2.2378,-2.2376,-2.2395,-2.2393,-2.2415,-2.2388,-2.2394,-2.2415,-2.2413,-2.2449,-2.2408,-2.2435,-2.2436,-2.2433,-2.2522,-2.2539,-2.2603,-2.2492,-2.2494,-2.2495,0,-2.2338,-2.2353,-2.2407,-2.2412,-2.2421,-2.2446,-2.2462,-2.248,-2.2489,-2.2486,-2.2496,-2.2482,-2.2512,-2.2478,-2.2519,-2.2491,-2.2502,-2.2502,-2.2504,-2.2506,-2.2469,-2.2526,-2.2623,-2.2632,-2.2508,-2.2507,-2.2506,0,-2.2403,-2.2437,-2.2473,-2.248,-2.2486,-2.2504,-2.2507,-2.2514,-2.2526,-2.254,-2.2547,-2.2564,-2.2574,-2.2587,-2.2578,-2.2554,-2.262,-2.2586,-2.2618,-2.2618,-2.2632,-2.2632,-2.2732,-2.264,-2.264,-2.264,-2.2639,0,-2.248,-2.2515,-2.2502,-2.2525,-2.2562,-2.2549,-2.2586,-2.2587,-2.2593,-2.2615,-2.2594,-2.2615,-2.2601,-2.2621,-2.2614,-2.2648,-2.2653,-2.2651,-2.2648,-2.2652,-2.2653,-2.2659,-2.2654,-2.2642,-2.2642,-2.2641,-2.2641,0,-2.2559,-2.2553,-2.2591,-2.2594,-2.2595,-2.2623,-2.2625,-2.2646,-2.2642,-2.267,-2.2676,-2.267,-2.2692,-2.2684,-2.2707,-2.2702,-2.2747,-2.2738,-2.2744,-2.2742,-2.2774,-2.2771,-2.2881,-2.2895,-2.2795,-2.2796,-2.2796,0,-2.2609,-2.2635,-2.2641,-2.2654,-2.2659,-2.2681,-2.2693,-2.268,-2.2693,-2.2705,-2.2724,-2.2744,-2.276,-2.2796,-2.2794,-2.2812,-2.2804,-2.2841,-2.2806,-2.2809,-2.2804,-2.2802,-2.2804,-2.2848,-2.2849,-2.285,-2.2851,0,-2.2698,-2.2693,-2.2712,-2.2729,-2.2744,-2.2757,-2.2768,-2.278,-2.2768,-2.2783,-2.2806,-2.2818,-2.2842,-2.2862,-2.2878,-2.2881,-2.2864,-2.2862,-2.287,-2.2875,-2.2876,-2.2875,-2.2762,-2.2859,-2.2859,-2.2858,-2.2858,-2.2857,-2.2764,-2.2785,-2.2793,-2.2813,-2.282,-2.2831,-2.285,-2.2849,-2.2868,-2.2886,-2.2878,-2.2904,-2.2911,-2.293,-2.2936,-2.2955,-2.2941,-2.2953,-2.2956,-2.2959,-2.2963,-2.2874,-2.2958,-2.2958,-2.2958,-2.2958,-2.2957,0,-2.2851,-2.2855,-2.2874,-2.289,-2.2906,-2.2889,-2.29,-2.2915,-2.2938,-2.2946,-2.2962,-2.2987,-2.3007,-2.3006,-2.3024,-2.304,-2.3032,-2.3045,-2.3043,-2.3044,-2.2975,-2.2966,-2.3051,-2.3051,-2.3051,-2.3051,-2.3051,-2.305,-2.2899,-2.2934,-2.293,-2.2969,-2.2972,-2.2997,-2.3005,-2.3014,-2.3021,-2.305,-2.3066,-2.3066,-2.307,-2.3088,-2.3105,-2.3104,-2.3111,-2.3127,-2.3123,-2.3058,-2.3049,-2.304,-2.3032,-2.3129,-2.3129,-2.319,-2.3191,-2.3191]},{"header":{"parameterUnit":"m.s-1","parameterCategory":1,"la1":30.2991,"la2":30.254,"lo1":-89.0895,"lo2":-89.0444,"dy":0.0017,"dx":0.0017,"nx":28,"ny":28,"refTime":"2025-12-05T03:00:00:Z","depth":0,"parameterNumber":3,"parameterNumberName":"V-component_of_WINDS"},"data":[0,0,0,0,0,0,0,0,0,0,0,0,0,0,0,0,0,0,0,0,0,0,0,0,0,0,0,0,0,0,0,0,0,0,0,0,0,0,0,0,0,0,0,0,0,0,0,0,0,0,0,0,0,0,0,0,0,0,-1.5527,-1.5528,0,-1.5609,-1.561,-1.5611,-1.5592,-1.559,-1.5589,-1.5587,-1.5672,-1.5676,-1.5679,0,0,0,0,0,0,0,0,0,0,0,0,0,-1.5355,-1.5358,-1.5527,-1.5528,-1.5529,-1.5609,-1.561,-1.5611,-1.5592,-1.559,-1.5588,-1.5586,-1.5671,-1.5675,-1.568,0,0,0,0,0,0,0,0,0,0,0,0,0,-1.5432,-1.5359,-1.5527,-1.5529,-1.553,-1.5609,-1.561,-1.5611,-1.5592,-1.559,-1.5588,-1.5586,-1.5669,-1.5675,-1.568,-1.5762,0,0,-1.5697,-1.57,0,0,0,0,0,0,0,0,-1.5428,-1.5439,-1.5528,-1.5529,-1.5531,-1.5588,-1.558,-1.5662,-1.5593,-1.5569,-1.5587,-1.5584,-1.5646,-1.5653,-1.5674,-1.5766,-1.5769,-1.5698,-1.5701,-1.5703,-1.5705,0,0,0,0,0,0,0,-1.5423,-1.5435,-1.556,-1.5529,-1.5531,-1.5526,-1.5535,-1.5596,-1.562,-1.5571,-1.557,-1.558,-1.5646,-1.5668,-1.5676,-1.577,-1.5698,-1.5702,-1.5706,-1.5708,-1.5932,-1.5935,0,0,0,0,0,0,-1.5416,-1.5431,-1.5557,-1.5562,-1.5472,-1.5531,-1.5541,-1.5572,-1.5619,-1.5624,-1.5581,-1.5578,-1.566,-1.5669,-1.5679,-1.5777,-1.5703,-1.5709,-1.5712,-1.593,-1.5933,-1.5936,0,0,0,0,0,0,-1.5412,-1.5427,-1.5554,-1.5496,-1.5512,-1.5537,-1.5572,-1.5575,-1.5597,-1.5627,-1.5631,-1.56,-1.5659,-1.5671,-1.5741,-1.5779,-1.5711,-1.5716,-1.5927,-1.5931,-1.5934,-1.5974,0,0,0,0,0,0,-1.5408,-1.5426,-1.5458,-1.5497,-1.5515,-1.5615,-1.5574,-1.5578,-1.5606,-1.5603,-1.5645,-1.565,-1.5658,-1.5733,-1.5746,-1.5786,-1.5721,-1.5923,-1.5929,-1.5933,-1.5969,-1.5979,-1.5987,0,0,0,0,0,-1.5401,-1.5466,-1.5459,-1.5475,-1.5554,-1.5617,-1.5627,-1.5635,-1.561,-1.5641,-1.566,-1.5649,-1.5773,-1.574,-1.5755,-1.5797,-1.5921,-1.5927,-1.5933,-1.5966,-1.5977,-1.5987,0,0,0,0,0,0,-1.5431,-1.5471,-1.5464,-1.5543,-1.5577,-1.5614,-1.5654,-1.5647,-1.5688,-1.5684,-1.5691,-1.5701,-1.5772,-1.5791,-1.5754,-1.5878,-1.5843,-1.5853,-1.5863,-1.5874,-1.5883,-1.5877,-1.5725,0,0,0,0,0,-1.5446,-1.5494,-1.5526,-1.5593,-1.561,-1.5629,-1.5656,-1.5659,-1.5694,-1.5709,-1.5733,-1.5768,-1.5814,-1.5845,-1.589,-1.5972,-1.5981,-1.6008,-1.6017,-1.6024,-1.6032,-1.6076,-1.6089,-1.5955,-1.5955,-1.5955,0,0,-1.5479,-1.5507,-1.5537,-1.5599,-1.5626,-1.5675,-1.5641,-1.5694,-1.5731,-1.5717,-1.5784,-1.5803,-1.5843,-1.5919,-1.5954,-1.5937,-1.6071,-1.6031,-1.6037,-1.6041,-1.6084,-1.6096,-1.6108,-1.5959,-1.5958,-1.5958,0,0,-1.5564,-1.559,-1.5648,-1.5675,-1.5715,-1.5727,-1.5741,-1.5779,-1.5791,-1.5859,-1.5849,-1.5892,-1.5973,-1.6001,-1.6026,-1.6121,-1.6111,-1.6135,-1.6181,-1.6224,-1.6235,-1.6244,-1.6278,-1.629,-1.6143,-1.6143,-1.6143,0,-1.56,-1.5674,-1.5679,-1.5733,-1.5761,-1.575,-1.5808,-1.5834,-1.5887,-1.5907,-1.5887,-1.5987,-1.6013,-1.6096,-1.6119,-1.6139,-1.6155,-1.6131,-1.6233,-1.6242,-1.6251,-1.6284,-1.6296,-1.6145,-1.6145,-1.6145,-1.6145,0,-1.5716,-1.5767,-1.5809,-1.5859,-1.5892,-1.5948,-1.5962,-1.5994,-1.5994,-1.6008,-1.6077,-1.6107,-1.6157,-1.6177,-1.6177,-1.626,-1.6248,-1.6231,-1.6196,-1.6266,-1.6297,-1.6309,-1.6149,-1.6148,-1.6147,-1.6147,0,0,-1.5823,-1.5875,-1.5891,-1.5913,-1.5956,-1.5995,-1.6051,-1.61,-1.6127,-1.6164,-1.621,-1.6278,-1.6262,-1.629,-1.6293,-1.6331,-1.6404,-1.6309,-1.631,-1.6326,-1.6497,-1.6511,-1.6525,-1.6398,-1.64,-1.6402,-1.6494,0,-1.5912,-1.601,-1.6016,-1.6104,-1.6151,-1.614,-1.6189,-1.622,-1.6234,-1.6276,-1.6292,-1.634,-1.6315,-1.6332,-1.6369,-1.6388,-1.6439,-1.6381,-1.6442,-1.6444,-1.6433,-1.6541,-1.6555,-1.6641,-1.6506,-1.6508,-1.6509,0,-1.6029,-1.6069,-1.6162,-1.6197,-1.6217,-1.6261,-1.6306,-1.6346,-1.6381,-1.6389,-1.642,-1.6417,-1.6474,-1.6437,-1.6515,-1.6476,-1.6501,-1.6513,-1.6517,-1.6524,-1.6482,-1.6551,-1.6668,-1.6681,-1.6528,-1.6527,-1.6525,0,-1.6099,-1.6175,-1.624,-1.626,-1.6303,-1.6334,-1.6353,-1.6386,-1.6415,-1.6454,-1.6473,-1.6518,-1.6543,-1.6579,-1.6588,-1.656,-1.6667,-1.663,-1.6675,-1.6675,-1.6699,-1.6697,-1.6822,-1.6714,-1.6714,-1.6713,-1.6713,0,-1.6198,-1.6255,-1.6272,-1.6312,-1.6376,-1.6382,-1.6445,-1.6463,-1.6492,-1.6535,-1.6529,-1.657,-1.658,-1.6623,-1.6631,-1.6694,-1.6706,-1.6714,-1.6715,-1.6715,-1.6714,-1.6732,-1.6727,-1.6717,-1.6716,-1.6715,-1.6715,0,-1.6287,-1.63,-1.6371,-1.6405,-1.6415,-1.6461,-1.649,-1.6529,-1.6542,-1.6597,-1.661,-1.6631,-1.6681,-1.6694,-1.6754,-1.6759,-1.6835,-1.683,-1.6823,-1.6823,-1.6867,-1.6863,-1.7009,-1.7028,-1.6906,-1.6908,-1.6908,0,-1.6349,-1.6393,-1.6432,-1.6461,-1.6481,-1.6528,-1.6557,-1.6564,-1.6595,-1.6637,-1.6671,-1.672,-1.676,-1.6841,-1.6861,-1.6907,-1.6904,-1.6952,-1.6911,-1.6909,-1.6905,-1.6903,-1.6907,-1.696,-1.6961,-1.6962,-1.6963,0,-1.646,-1.6464,-1.6506,-1.6551,-1.6585,-1.6621,-1.6655,-1.6679,-1.669,-1.6725,-1.6776,-1.6807,-1.6868,-1.6917,-1.6963,-1.6982,-1.6975,-1.6975,-1.6988,-1.6989,-1.6983,-1.6987,-1.6845,-1.6972,-1.6971,-1.6971,-1.697,-1.697,-1.6538,-1.6576,-1.661,-1.6657,-1.6683,-1.6714,-1.6752,-1.677,-1.6812,-1.6862,-1.6864,-1.6919,-1.6952,-1.7013,-1.7036,-1.7079,-1.7065,-1.7083,-1.7088,-1.7093,-1.7097,-1.6975,-1.7087,-1.7087,-1.7087,-1.7087,-1.7087,0,-1.6648,-1.6669,-1.6712,-1.6759,-1.6796,-1.6785,-1.6822,-1.6854,-1.6902,-1.6934,-1.6973,-1.7031,-1.7078,-1.7102,-1.7149,-1.7179,-1.7177,-1.7191,-1.719,-1.7194,-1.7107,-1.7091,-1.7192,-1.7192,-1.7192,-1.7192,-1.7192,-1.7192,-1.671,-1.6775,-1.6783,-1.686,-1.688,-1.6934,-1.6956,-1.6985,-1.701,-1.7075,-1.7114,-1.7129,-1.7158,-1.7206,-1.7249,-1.7255,-1.7272,-1.7289,-1.7293,-1.7211,-1.72,-1.719,-1.7176,-1.7293,-1.7293,-1.7377,-1.7377,-1.7378]}]]